STARLINK-32122 (60285 NORAD) Tracking and Keplerian Element Data

This shows tracking and keplerian element data for the satellite.

Feedback or suggestion? Click here.




ElementValue
Catalog60285
NameSTARLINK-32122
Epoch Orbit1295
Epoch Day286.27391015
Epoch Year2024
RAAN277.2341
Inclination53.1608
Eccentricity0.0001367
Argument of Perigee67.5386
Mean Anonmoly292.5759
Mean Motion15.30206271
Decay Rate-1.565E-05
L11 60285U 24132H 24286.27391015 -.00001565 00000+0 -40717-4 0 9994
L22 60285 53.1608 277.2341 0001367 67.5386 292.5759 15.30206271 12957



Live tracking and technical data element details for STARLINK-32122 (NORAD 60285). STARLINK-32122 can be tracked NOW for your location showing map with azimuth and elevation plus other details from your city location.







IsCatalogInMostPopularTable: catalog: 60285, numindb: 11
Update: records affected: 1



GetName: 60285 STARLINK-32122

Hit Count: updated at: Thu, 23 Jan 2025 14:52:39 GMT